SCP
0 0 0 0 0 0 0 0 0 0 0 0 -0 -0 -0 -0 -0 -0 -0 -0 -0 -0 -0 -0 -0 -0 -0 -0 0 0 0 0 0 0 0 0 0 0 0 0 0 0 0
0 0 0 0 0 0 0 0 0 0 0 0 0 -0 -0 -0 -0 -0 -0 0 -0 -0 -0 -0 0 0 0 0 0 0 0 0 0 0 0 0 0 0 0 0 0 0 0
0 0 0 0 0 0 0 0 0 0 0 0 0 0 -0 -0 -0 -0 -0 0 0 -0 -0 -0 -0 -0 0 0 0 0 0 0 0 0 0 0 0 0 0 0 0 0 0
0 0 0 0 0 0 0 0 0 0 0 0 0 0 0 0 0 0 0 0 0 -0 -0 -0 -0 0 0 0 0 0 0 0 0 0 0 0 0 0 0 0 0 0 0
0 0 0 1 0 0 0 0 0 0 0 0 0 0 0 0 0 0 0 0 0 0 0 0 0 0 0 0 0 0 0 0 0 0 0 0 0 0 0 0 0 0 0
0 0 0 0 0 1 1 0 0 0 0 0 0 0 0 0 0 0 0 0 0 0 0 0 0 0 0 0 0 0 0 0 0 0 0 0 0 0 0 0 0 0 0
0 0 0 0 0 1 1 1 0 0 0 0 0 0 0 0 0 0 0 0 0 0 0 0 0 0 0 0 0 0 0 0 0 0 0 0 0 0 0 0 0 0 0
0 1 1 1 1 1 1 1 0 0 0 0 0 0 0 0 0 0 0 0 0 0 0 0 0 0 0 0 0 0 0 0 0 0 0 0 0 0 0 0 0 0 0
1 1 1 1 1 1 1 1 0 0 0 0 0 0 0 0 0 0 0 0 0 0 0 0 0 0 0 0 0 0 0 0 0 0 0 0 0 0 0 0 0 0 0
1 1 1 1 1 0 0 0 0 0 0 0 0 0 0 0 0 0 0 0 0 0 0 0 0 0 0 0 0 0 0 0 0 0 0 0 0 0 0 0 0 0 0
1 1 1 1 0 0 0 0 0 0 0 0 0 0 0 0 0 0 0 0 0 0 0 0 0 0 0 0 0 0 0 0 0 0 0 0 0 0 0 0 0 0 0
1 1 1 0 0 0 0 0 0 0 0 0 0 0 0 0 0 0 0 0 0 0 0 0 0 0 0 0 0 0 0 0 0 0 0 0 0 0 0 0 0 0 0
1 0 0 0 0 0 0 0 0 0 0 0 0 0 0 0 0 0 0 0 0 0 0 0 0 0 0 0 0 0 0 0 0 0 0 0 0 0 0 0 0 0 0
0 0 0 0 0 0 0 0 0 0 0 0 0 0 0 0 0 0 0 0 0 0 0 0 0 0 0 0 0 0 0 0 0 0 0 0 0 0 0 0 0 0 0
1 0 0 0 0 0 0 0 0 0 0 0 0 0 0 0 0 0 0 0 0 0 0 0 0 0 0 0 0 0 0 0 0 0 0 0 0 0 0 0 0 0 0
1 1 0 0 0 0 0 0 0 0 0 0 0 0 0 0 0 0 0 0 0 0 0 0 0 0 0 0 0 0 0 0 0 0 0 0 0 0 0 0 0 0 0
1 0 0 0 0 0 0 0 0 0 0 0 0 0 0 0 0 0 0 0 0 0 0 0 0 0 0 0 0 0 0 0 0 0 0 0 0 0 0 0 0 0 0
0 0 0 0 0 0 0 0 0 0 0 0 0 0 0 0 0 0 0 0 0 0 0 0 0 0 0 0 0 0 0 0 0 0 0 0 0 0 0 0 0 0 0
0 0 0 0 0 0 0 0 0 0 0 0 0 0 0 0 0 0 0 0 0 0 0 0 0 0 0 0 0 0 0 0 0 0 0 0 0 0 -0 0 0 0 0
0 0 0 0 0 0 0 0 0 0 0 0 0 0 0 0 0 0 0 0 0 0 0 0 0 0 0 0 0 0 0 0 0 0 0 0 0 -0 -0 0 0 0 0
0 0 0 0 0 0 0 0 0 0 0 0 0 0 0 0 0 0 0 0 0 0 0 0 0 0 0 0 0 0 0 0 0 0 0 0 -0 -0 0 0 0 0 0
0 0 0 0 0 0 0 0 0 0 0 0 0 0 0 0 0 0 0 0 0 0 0 0 0 0 0 0 0 0 0 0 0 0 0 0 0 0 0 0 0 0 0
0 0 0 0 0 0 0 0 0 0 0 0 0 0 0 0 0 0 0 0 0 0 0 0 0 0 0 0 0 0 0 0 0 0 0 0 0 0 0 0 0 0 0
0 0 0 0 0 0 0 0 0 0 0 0 0 0 0 0 0 0 0 0 0 0 0 0 0 0 0 0 0 0 0 0 0 0 0 0 0 0 0 0 0 0 0
0 0 0 0 0 0 0 0 0 0 0 0 0 0 0 0 0 0 0 0 0 0 0 0 0 0 0 0 0 0 0 0 0 0 0 0 0 0 0 0 0 -0 0
0 0 0 0 0 0 0 0 0 0 0 0 0 0 0 0 0 0 0 0 0 0 0 0 0 0 0 0 0 0 0 0 0 0 0 0 0 0 0 0 0 -0 0
Wind_Speed_500mb
27 33 37 33 31 32 34 34 33 31 31 32 31 31 30 28 26 22 20 16 13 13 13 12 11 12 11 8 7 6 4 5 9 11 13 14 15 18 24 25 21 19 17
24 34 40 37 34 33 34 35 34 33 31 29 28 28 28 26 22 21 18 16 14 12 12 11 11 11 12 10 9 7 3 2 7 9 11 12 13 16 19 22 23 21 17
16 39 43 39 36 35 36 36 34 32 30 29 28 27 26 25 23 21 18 16 14 13 12 13 13 14 12 11 8 5 3 2 3 4 5 12 17 18 17 20 19 18 18
16 41 43 38 36 36 36 35 34 32 30 28 27 27 26 24 23 22 20 19 20 17 15 13 11 10 9 7 5 5 6 7 6 6 3 8 10 16 21 25 19 18 16
21 35 38 37 36 35 37 36 34 32 30 29 28 26 25 24 22 21 20 16 13 11 10 8 7 5 5 6 6 7 7 7 6 6 8 9 4 9 16 20 23 22 21
23 32 37 35 35 34 35 36 35 33 30 29 27 27 26 25 23 20 18 15 12 9 8 7 7 6 6 5 5 6 6 5 5 7 11 8 9 14 21 25 27 26 24
25 26 36 35 34 35 35 34 33 32 30 29 28 27 27 25 22 19 15 12 10 7 6 7 6 6 5 5 6 7 8 8 8 11 12 12 11 15 18 19 24 23 19
22 29 35 37 37 36 35 34 33 31 30 29 28 27 24 22 18 16 14 12 9 7 6 6 6 7 9 11 12 13 13 13 14 16 17 17 13 19 23 29 32 32 32
20 25 32 38 39 38 36 36 36 35 35 32 29 24 22 20 18 16 13 11 10 9 9 9 9 10 10 11 13 14 16 17 18 20 20 21 24 28 35 39 39 37 35
25 24 34 36 40 40 40 39 39 38 35 33 26 20 20 19 18 16 14 13 13 12 11 12 12 13 15 18 20 20 21 21 23 24 24 25 28 31 33 33 34 35 36
32 34 32 36 42 44 44 41 39 37 36 35 28 23 22 20 19 17 17 16 16 15 14 15 17 19 19 19 18 19 20 21 24 25 24 26 28 30 31 30 32 33 34
43 44 40 40 45 47 46 44 42 44 43 38 31 28 25 23 22 20 19 18 17 16 18 18 16 16 17 18 18 18 18 19 21 23 22 23 25 26 28 29 29 28 29
40 41 40 38 43 44 46 46 46 46 46 40 36 31 28 26 24 21 19 18 18 17 15 13 14 15 16 16 15 14 14 14 16 19 20 21 23 24 24 22 22 24 26
41 41 40 39 38 43 41 42 47 53 49 45 41 37 32 27 24 23 21 20 19 16 13 13 15 15 14 14 13 12 11 12 15 16 20 21 22 20 20 21 20 19 20
45 46 50 49 46 43 46 45 47 53 53 48 44 38 36 27 25 25 23 21 19 16 15 14 15 15 13 12 11 10 11 12 14 15 16 17 15 14 15 14 13 14 16
45 54 58 58 53 46 49 54 53 52 49 48 42 38 35 28 27 27 25 21 19 17 16 14 14 13 12 11 11 10 11 12 13 11 7 7 9 9 11 11 12 15 17
45 47 54 60 61 57 54 54 55 52 51 51 45 40 32 29 39 30 25 23 20 18 17 15 14 13 11 10 11 11 10 11 6 4 6 7 9 9 9 13 16 18 19
45 51 48 56 61 64 59 66 61 55 57 51 48 40 37 37 34 31 27 25 21 20 18 17 14 13 12 10 10 9 7 3 4 5 7 6 8 11 13 12 12 12 14
53 53 53 48 57 66 61 58 64 59 61 52 51 49 40 47 41 32 30 27 23 22 19 17 15 14 12 10 9 6 3 6 8 7 9 10 9 11 9 11 14 18 20
56 59 55 50 51 58 52 60 65 64 65 62 60 51 47 43 38 35 32 28 25 23 21 19 17 15 12 9 6 6 9 10 8 13 10 8 7 9 9 13 16 18 20
39 61 64 61 56 52 52 62 69 70 68 62 57 53 51 43 41 37 33 30 27 24 22 20 19 17 14 10 11 13 16 16 12 11 6 3 1 5 9 11 15 19 21
27 42 67 67 62 53 53 59 79 75 71 65 63 59 52 46 43 39 35 32 28 26 24 22 21 20 18 16 17 21 18 18 17 12 9 7 5 3 6 8 14 18 23
21 39 64 70 64 56 53 59 74 70 67 67 68 62 55 52 46 41 37 34 30 28 25 24 24 23 22 20 23 19 14 15 28 18 15 12 7 1 1 6 11 18 23
11 33 52 65 65 59 56 58 65 71 78 80 76 68 58 58 49 44 39 36 32 29 27 26 26 25 25 25 25 33 24 17 17 20 22 18 12 6 2 3 10 17 22
26 17 35 54 67 66 59 58 60 69 73 77 74 65 60 58 52 46 42 38 34 31 28 27 28 26 27 27 26 28 30 28 23 15 22 26 17 10 7 2 7 16 21
39 25 4 38 56 68 66 63 63 67 72 79 76 71 70 61 56 49 44 40 36 32 28 29 29 29 28 28 27 28 28 28 27 22 21 30 22 16 13 2 5 15 20
Wind_Direction_500mb
176 179 176 175 171 164 161 160 157 154 153 156 157 158 159 160 163 165 170 169 159 150 146 153 159 167 170 161 139 142 130 65 39 26 29 30 28 31 29 21 19 19 24
178 178 173 173 171 166 163 163 161 160 157 154 153 154 158 160 160 159 162 161 154 155 154 158 163 171 178 174 182 188 187 17 22 7 3 10 9 15 19 15 14 15 13
191 173 170 170 168 166 164 164 164 163 160 156 154 154 156 157 157 157 156 151 146 139 138 148 152 158 171 181 187 208 259 298 339 335 335 357 355 354 3 356 355 359 2
176 170 169 170 167 166 165 164 164 163 162 160 160 160 157 157 157 154 150 146 140 141 141 143 151 161 173 195 225 253 278 293 298 294 298 339 9 350 330 330 330 334 337
177 178 174 170 169 167 165 165 165 165 164 163 164 162 159 159 158 155 155 158 162 160 154 159 168 188 209 227 253 271 284 295 297 282 265 276 302 295 310 318 327 322 319
178 183 181 176 174 171 168 166 168 169 169 169 167 165 164 162 162 163 163 165 171 168 157 172 185 196 219 243 268 290 301 303 305 282 271 266 282 290 304 316 315 313 316
183 182 184 179 177 173 172 170 169 168 169 171 170 171 169 169 166 168 173 179 188 187 182 181 189 205 222 248 268 276 275 281 275 269 270 269 279 310 304 298 302 306 303
197 187 188 181 180 177 176 176 174 171 172 174 174 178 174 173 174 178 182 189 196 197 199 206 223 239 254 262 270 270 275 275 276 272 269 266 260 262 271 281 289 303 296
202 204 186 188 183 182 179 177 175 176 180 180 183 183 180 179 182 188 193 203 213 220 228 239 248 257 265 275 278 284 284 283 277 274 270 268 265 263 270 282 290 296 298
200 199 197 196 189 188 186 186 183 185 188 187 188 187 186 191 193 197 203 210 217 222 231 242 252 265 274 277 279 280 280 278 276 273 274 275 276 278 281 287 294 297 299
195 204 207 205 198 194 193 194 193 195 199 200 199 201 202 203 208 209 213 215 218 224 234 251 263 268 272 274 276 276 275 275 275 276 277 277 279 286 295 301 304 307 309
211 200 204 210 207 202 199 200 203 204 206 204 208 211 210 213 216 215 217 220 224 237 252 259 263 268 273 276 275 272 273 274 276 278 283 288 294 301 308 313 312 311 314
220 212 204 214 212 212 209 207 206 210 209 211 215 213 216 217 218 222 223 232 246 255 253 256 265 271 275 277 276 275 276 278 280 288 294 299 302 308 313 318 328 333 334
220 217 226 235 225 219 215 219 217 209 219 214 217 214 213 220 226 227 234 247 254 248 254 269 277 281 278 273 272 275 281 290 294 298 301 301 308 321 335 346 355 351 349
227 231 235 233 236 232 222 226 228 229 227 216 218 210 216 216 234 237 244 247 241 246 257 268 280 280 275 274 278 286 297 299 296 299 302 313 331 350 357 6 21 18 12
235 236 232 230 235 236 230 229 227 232 227 211 206 209 219 221 247 247 247 240 240 251 262 271 278 274 271 275 284 291 296 299 308 320 330 359 18 24 16 14 2 8 15
239 247 235 231 230 233 229 234 234 233 212 207 207 217 217 230 246 244 242 238 243 255 263 272 272 268 266 272 283 296 308 310 335 52 68 57 50 31 29 25 18 8 360
243 246 238 237 233 233 233 224 228 231 208 209 211 208 233 241 247 247 240 239 245 254 262 270 269 266 267 277 287 297 301 294 119 113 99 82 77 54 26 21 20 16 16
253 244 243 241 235 235 234 233 228 223 209 214 219 210 217 239 240 239 238 240 246 253 262 266 263 261 265 271 278 271 223 161 139 133 127 105 89 40 22 31 40 38 27
249 246 245 250 244 240 238 233 223 222 211 211 222 223 221 230 236 235 237 241 246 254 260 265 261 257 259 260 243 194 162 156 150 146 136 93 60 26 26 41 42 30 21
257 248 242 238 239 238 237 227 222 220 209 208 219 226 225 226 232 234 237 241 246 253 260 261 261 259 253 235 204 180 165 159 157 165 165 129 5 6 33 40 33 26 20
252 257 237 236 236 242 238 235 224 219 213 211 214 220 226 226 230 233 238 241 246 254 260 261 260 258 252 234 216 198 180 186 190 193 190 202 242 1 19 33 28 20 15
246 242 239 233 235 238 240 233 228 220 221 216 216 218 225 227 228 232 237 240 245 252 259 261 261 260 257 244 222 204 180 197 184 202 201 212 229 166 24 37 18 16 7
321 248 237 233 235 240 242 238 238 233 223 220 218 220 219 225 228 231 235 240 244 252 259 262 262 261 262 253 233 219 214 186 180 183 202 207 219 212 167 21 15 13 2
12 320 246 237 235 238 243 243 243 234 233 231 225 226 228 226 227 230 234 239 243 250 257 263 265 264 262 252 235 221 209 203 196 173 182 198 202 193 174 60 4 6 353
27 24 280 225 241 243 241 243 244 243 236 231 228 226 226 228 230 231 233 238 240 247 256 263 267 268 262 249 233 220 212 205 207 189 182 187 188 182 172 78 358 354 350
Wind_Speed_850mb
27 33 37 33 31 32 34 34 33 31 31 32 31 31 30 28 26 22 20 16 13 13 13 12 11 12 11 8 7 6 4 5 9 11 13 14 15 18 24 25 21 19 17
24 34 40 37 34 33 34 35 34 33 31 29 28 28 28 26 22 21 18 16 14 12 12 11 11 11 12 10 9 7 3 2 7 9 11 12 13 16 19 22 23 21 17
16 39 43 39 36 35 36 36 34 32 30 29 28 27 26 25 23 21 18 16 14 13 12 13 13 14 12 11 8 5 3 2 3 4 5 12 17 18 17 20 19 18 18
16 41 43 38 36 36 36 35 34 32 30 28 27 27 26 24 23 22 20 19 20 17 15 13 11 10 9 7 5 5 6 7 6 6 3 8 10 16 21 25 19 18 16
21 35 38 37 36 35 37 36 34 32 30 29 28 26 25 24 22 21 20 16 13 11 10 8 7 5 5 6 6 7 7 7 6 6 8 9 4 9 16 20 23 22 21
23 32 37 35 35 34 35 36 35 33 30 29 27 27 26 25 23 20 18 15 12 9 8 7 7 6 6 5 5 6 6 5 5 7 11 8 9 14 21 25 27 26 24
25 26 36 35 34 35 35 34 33 32 30 29 28 27 27 25 22 19 15 12 10 7 6 7 6 6 5 5 6 7 8 8 8 11 12 12 11 15 18 19 24 23 19
22 29 35 37 37 36 35 34 33 31 30 29 28 27 24 22 18 16 14 12 9 7 6 6 6 7 9 11 12 13 13 13 14 16 17 17 13 19 23 29 32 32 32
20 25 32 38 39 38 36 36 36 35 35 32 29 24 22 20 18 16 13 11 10 9 9 9 9 10 10 11 13 14 16 17 18 20 20 21 24 28 35 39 39 37 35
25 24 34 36 40 40 40 39 39 38 35 33 26 20 20 19 18 16 14 13 13 12 11 12 12 13 15 18 20 20 21 21 23 24 24 25 28 31 33 33 34 35 36
32 34 32 36 42 44 44 41 39 37 36 35 28 23 22 20 19 17 17 16 16 15 14 15 17 19 19 19 18 19 20 21 24 25 24 26 28 30 31 30 32 33 34
43 44 40 40 45 47 46 44 42 44 43 38 31 28 25 23 22 20 19 18 17 16 18 18 16 16 17 18 18 18 18 19 21 23 22 23 25 26 28 29 29 28 29
40 41 40 38 43 44 46 46 46 46 46 40 36 31 28 26 24 21 19 18 18 17 15 13 14 15 16 16 15 14 14 14 16 19 20 21 23 24 24 22 22 24 26
41 41 40 39 38 43 41 42 47 53 49 45 41 37 32 27 24 23 21 20 19 16 13 13 15 15 14 14 13 12 11 12 15 16 20 21 22 20 20 21 20 19 20
45 46 50 49 46 43 46 45 47 53 53 48 44 38 36 27 25 25 23 21 19 16 15 14 15 15 13 12 11 10 11 12 14 15 16 17 15 14 15 14 13 14 16
45 54 58 58 53 46 49 54 53 52 49 48 42 38 35 28 27 27 25 21 19 17 16 14 14 13 12 11 11 10 11 12 13 11 7 7 9 9 11 11 12 15 17
45 47 54 60 61 57 54 54 55 52 51 51 45 40 32 29 39 30 25 23 20 18 17 15 14 13 11 10 11 11 10 11 6 4 6 7 9 9 9 13 16 18 19
45 51 48 56 61 64 59 66 61 55 57 51 48 40 37 37 34 31 27 25 21 20 18 17 14 13 12 10 10 9 7 3 4 5 7 6 8 11 13 12 12 12 14
53 53 53 48 57 66 61 58 64 59 61 52 51 49 40 47 41 32 30 27 23 22 19 17 15 14 12 10 9 6 3 6 8 7 9 10 9 11 9 11 14 18 20
56 59 55 50 51 58 52 60 65 64 65 62 60 51 47 43 38 35 32 28 25 23 21 19 17 15 12 9 6 6 9 10 8 13 10 8 7 9 9 13 16 18 20
39 61 64 61 56 52 52 62 69 70 68 62 57 53 51 43 41 37 33 30 27 24 22 20 19 17 14 10 11 13 16 16 12 11 6 3 1 5 9 11 15 19 21
27 42 67 67 62 53 53 59 79 75 71 65 63 59 52 46 43 39 35 32 28 26 24 22 21 20 18 16 17 21 18 18 17 12 9 7 5 3 6 8 14 18 23
21 39 64 70 64 56 53 59 74 70 67 67 68 62 55 52 46 41 37 34 30 28 25 24 24 23 22 20 23 19 14 15 28 18 15 12 7 1 1 6 11 18 23
11 33 52 65 65 59 56 58 65 71 78 80 76 68 58 58 49 44 39 36 32 29 27 26 26 25 25 25 25 33 24 17 17 20 22 18 12 6 2 3 10 17 22
26 17 35 54 67 66 59 58 60 69 73 77 74 65 60 58 52 46 42 38 34 31 28 27 28 26 27 27 26 28 30 28 23 15 22 26 17 10 7 2 7 16 21
39 25 4 38 56 68 66 63 63 67 72 79 76 71 70 61 56 49 44 40 36 32 28 29 29 29 28 28 27 28 28 28 27 22 21 30 22 16 13 2 5 15 20
Wind_Direction_850mb
176 179 176 175 171 164 161 160 157 154 153 156 157 158 159 160 163 165 170 169 159 150 146 153 159 167 170 161 139 142 130 65 39 26 29 30 28 31 29 21 19 19 24
178 178 173 173 171 166 163 163 161 160 157 154 153 154 158 160 160 159 162 161 154 155 154 158 163 171 178 174 182 188 187 17 22 7 3 10 9 15 19 15 14 15 13
191 173 170 170 168 166 164 164 164 163 160 156 154 154 156 157 157 157 156 151 146 139 138 148 152 158 171 181 187 208 259 298 339 335 335 357 355 354 3 356 355 359 2
176 170 169 170 167 166 165 164 164 163 162 160 160 160 157 157 157 154 150 146 140 141 141 143 151 161 173 195 225 253 278 293 298 294 298 339 9 350 330 330 330 334 337
177 178 174 170 169 167 165 165 165 165 164 163 164 162 159 159 158 155 155 158 162 160 154 159 168 188 209 227 253 271 284 295 297 282 265 276 302 295 310 318 327 322 319
178 183 181 176 174 171 168 166 168 169 169 169 167 165 164 162 162 163 163 165 171 168 157 172 185 196 219 243 268 290 301 303 305 282 271 266 282 290 304 316 315 313 316
183 182 184 179 177 173 172 170 169 168 169 171 170 171 169 169 166 168 173 179 188 187 182 181 189 205 222 248 268 276 275 281 275 269 270 269 279 310 304 298 302 306 303
197 187 188 181 180 177 176 176 174 171 172 174 174 178 174 173 174 178 182 189 196 197 199 206 223 239 254 262 270 270 275 275 276 272 269 266 260 262 271 281 289 303 296
202 204 186 188 183 182 179 177 175 176 180 180 183 183 180 179 182 188 193 203 213 220 228 239 248 257 265 275 278 284 284 283 277 274 270 268 265 263 270 282 290 296 298
200 199 197 196 189 188 186 186 183 185 188 187 188 187 186 191 193 197 203 210 217 222 231 242 252 265 274 277 279 280 280 278 276 273 274 275 276 278 281 287 294 297 299
195 204 207 205 198 194 193 194 193 195 199 200 199 201 202 203 208 209 213 215 218 224 234 251 263 268 272 274 276 276 275 275 275 276 277 277 279 286 295 301 304 307 309
211 200 204 210 207 202 199 200 203 204 206 204 208 211 210 213 216 215 217 220 224 237 252 259 263 268 273 276 275 272 273 274 276 278 283 288 294 301 308 313 312 311 314
220 212 204 214 212 212 209 207 206 210 209 211 215 213 216 217 218 222 223 232 246 255 253 256 265 271 275 277 276 275 276 278 280 288 294 299 302 308 313 318 328 333 334
220 217 226 235 225 219 215 219 217 209 219 214 217 214 213 220 226 227 234 247 254 248 254 269 277 281 278 273 272 275 281 290 294 298 301 301 308 321 335 346 355 351 349
227 231 235 233 236 232 222 226 228 229 227 216 218 210 216 216 234 237 244 247 241 246 257 268 280 280 275 274 278 286 297 299 296 299 302 313 331 350 357 6 21 18 12
235 236 232 230 235 236 230 229 227 232 227 211 206 209 219 221 247 247 247 240 240 251 262 271 278 274 271 275 284 291 296 299 308 320 330 359 18 24 16 14 2 8 15
239 247 235 231 230 233 229 234 234 233 212 207 207 217 217 230 246 244 242 238 243 255 263 272 272 268 266 272 283 296 308 310 335 52 68 57 50 31 29 25 18 8 360
243 246 238 237 233 233 233 224 228 231 208 209 211 208 233 241 247 247 240 239 245 254 262 270 269 266 267 277 287 297 301 294 119 113 99 82 77 54 26 21 20 16 16
253 244 243 241 235 235 234 233 228 223 209 214 219 210 217 239 240 239 238 240 246 253 262 266 263 261 265 271 278 271 223 161 139 133 127 105 89 40 22 31 40 38 27
249 246 245 250 244 240 238 233 223 222 211 211 222 223 221 230 236 235 237 241 246 254 260 265 261 257 259 260 243 194 162 156 150 146 136 93 60 26 26 41 42 30 21
257 248 242 238 239 238 237 227 222 220 209 208 219 226 225 226 232 234 237 241 246 253 260 261 261 259 253 235 204 180 165 159 157 165 165 129 5 6 33 40 33 26 20
252 257 237 236 236 242 238 235 224 219 213 211 214 220 226 226 230 233 238 241 246 254 260 261 260 258 252 234 216 198 180 186 190 193 190 202 242 1 19 33 28 20 15
246 242 239 233 235 238 240 233 228 220 221 216 216 218 225 227 228 232 237 240 245 252 259 261 261 260 257 244 222 204 180 197 184 202 201 212 229 166 24 37 18 16 7
321 248 237 233 235 240 242 238 238 233 223 220 218 220 219 225 228 231 235 240 244 252 259 262 262 261 262 253 233 219 214 186 180 183 202 207 219 212 167 21 15 13 2
12 320 246 237 235 238 243 243 243 234 233 231 225 226 228 226 227 230 234 239 243 250 257 263 265 264 262 252 235 221 209 203 196 173 182 198 202 193 174 60 4 6 353
27 24 280 225 241 243 241 243 244 243 236 231 228 226 226 228 230 231 233 238 240 247 256 263 267 268 262 249 233 220 212 205 207 189 182 187 188 182 172 78 358 354 350